Year,Month,Day,Hour,Minute,Value (Times are PST for barometer in hPa)
2019,06,03,14,49,1018.39
2019,06,03,14,50,1018.39
2019,06,03,14,51,1018.41
2019,06,03,15,10,1018.90
2019,06,03,15,11,1018.34
2019,06,03,15,12,1018.15
2019,06,03,15,13,1018.18
2019,06,03,15,14,1018.23
2019,06,03,15,15,1018.17
2019,06,03,15,16,1018.13
2019,06,03,15,17,1018.09
2019,06,03,15,18,1018.08
2019,06,03,15,19,1018.14
2019,06,03,15,20,1018.21
2019,06,03,15,21,1018.22
2019,06,03,15,22,1018.20
2019,06,03,15,23,1018.21
2019,06,03,15,24,1018.24
2019,06,03,15,25,1018.21
2019,06,03,15,26,1018.16
2019,06,03,15,27,1018.13
2019,06,03,15,28,1018.09
2019,06,03,15,29,1018.03
2019,06,03,15,30,1018.07
2019,06,03,15,31,1018.03
2019,06,03,15,32,1017.93
2019,06,03,15,33,1017.94
2019,06,03,15,34,1017.95
2019,06,03,15,35,1017.97
2019,06,03,15,36,1018.01
2019,06,03,15,37,1017.99
2019,06,03,15,38,1018.01
2019,06,03,15,39,1017.99
2019,06,03,15,40,1018.01
2019,06,03,15,41,1018.04
2019,06,03,15,42,1018.05
2019,06,03,15,43,1018.07
2019,06,03,15,44,1018.08
2019,06,03,15,45,1017.95
2019,06,03,15,46,1017.96
2019,06,03,15,47,1017.93
2019,06,03,15,48,1017.99
2019,06,03,15,49,1017.99
2019,06,03,15,50,1017.98
2019,06,03,15,51,1018.01
2019,06,03,15,52,1017.99
2019,06,03,15,53,1017.98
2019,06,03,15,54,1017.98
2019,06,03,15,55,1018.01
2019,06,03,15,56,1018.02
2019,06,03,15,57,1017.99
2019,06,03,15,58,1017.98
2019,06,03,15,59,1017.93
2019,06,03,16,00,1017.99
2019,06,03,16,01,1017.99
2019,06,03,16,02,1017.98
2019,06,03,16,03,1017.98
2019,06,03,16,04,1018.01
2019,06,03,16,05,1017.99
2019,06,03,16,06,1017.96
2019,06,03,16,07,1018.03
2019,06,03,16,08,1018.00
2019,06,03,16,09,1017.96
2019,06,03,16,10,1017.97
2019,06,03,16,11,1017.98
2019,06,03,16,12,1017.96
2019,06,03,16,13,1018.01
2019,06,03,16,14,1017.99
2019,06,03,16,15,1017.98
2019,06,03,16,16,1017.96
2019,06,03,16,17,1017.92
2019,06,03,16,18,1017.89
2019,06,03,16,19,1017.86
2019,06,03,16,20,1017.85
2019,06,03,16,21,1017.85
2019,06,03,16,22,1017.82
2019,06,03,16,23,1017.84
2019,06,03,16,24,1017.87
2019,06,03,16,25,1017.83
2019,06,03,16,26,1017.84
2019,06,03,16,27,1017.80
2019,06,03,16,28,1017.80
2019,06,03,16,29,1017.79
2019,06,03,16,30,1017.76
2019,06,03,16,31,1017.79
2019,06,03,16,32,1017.79
2019,06,03,16,33,1017.76
2019,06,03,16,34,1017.72
2019,06,03,16,35,1017.74
2019,06,03,16,36,1017.66
2019,06,03,16,37,1017.67
2019,06,03,16,38,1017.68
2019,06,03,16,39,1017.70
2019,06,03,16,40,1017.69
2019,06,03,16,41,1017.70
2019,06,03,16,42,1017.66
2019,06,03,16,43,1017.64
2019,06,03,16,44,1017.62
2019,06,03,16,45,1017.61
2019,06,03,16,46,1017.55
2019,06,03,16,47,1017.57
2019,06,03,16,48,1017.60
2019,06,03,16,49,1017.59
2019,06,03,16,50,1017.58
2019,06,03,16,51,1017.58
2019,06,03,16,52,1017.50
2019,06,03,16,53,1017.52
2019,06,03,16,54,1017.52
2019,06,03,16,55,1017.48
2019,06,03,16,56,1017.50
2019,06,03,16,57,1017.46
2019,06,03,16,58,1017.44
2019,06,03,16,59,1017.49
2019,06,03,17,00,1017.51
2019,06,03,17,01,1017.48
2019,06,03,17,02,1017.52
2019,06,03,17,03,1017.52
2019,06,03,17,04,1017.53
2019,06,03,17,05,1017.54
2019,06,03,17,06,1017.52
2019,06,03,17,07,1017.48
2019,06,03,17,08,1017.58
2019,06,03,17,09,1017.55
2019,06,03,17,10,1017.49
2019,06,03,17,11,1017.52
2019,06,03,17,12,1017.57
2019,06,03,17,13,1017.53
2019,06,03,17,14,1017.51
2019,06,03,17,15,1017.53
2019,06,03,17,16,1017.54
2019,06,03,17,17,1017.54
2019,06,03,17,18,1017.52
2019,06,03,17,19,1017.51
2019,06,03,17,20,1017.53
2019,06,03,17,21,1017.47
2019,06,03,17,22,1017.49
2019,06,03,17,23,1017.51
2019,06,03,17,24,1017.48
2019,06,03,17,25,1017.50
2019,06,03,17,26,1017.51
2019,06,03,17,27,1017.46
2019,06,03,17,28,1017.49
2019,06,03,17,29,1017.51
2019,06,03,17,30,1017.48
2019,06,03,17,31,1017.45
2019,06,03,17,32,1017.44
2019,06,03,17,33,1017.44
2019,06,03,17,34,1017.39
2019,06,03,17,35,1017.42
2019,06,03,17,36,1017.46
2019,06,03,17,37,1017.42
2019,06,03,17,38,1017.43
2019,06,03,17,39,1017.42
2019,06,03,17,40,1017.43
2019,06,03,17,41,1017.44
2019,06,03,17,42,1017.42
2019,06,03,17,43,1017.38
2019,06,03,17,44,1017.40
2019,06,03,17,45,1017.38
2019,06,03,17,46,1017.35
2019,06,03,17,47,1017.34
2019,06,03,17,48,1017.36
2019,06,03,17,49,1017.40
2019,06,03,17,50,1017.38
2019,06,03,17,51,1017.40
2019,06,03,17,52,1017.38
2019,06,03,17,53,1017.40
2019,06,03,17,54,1017.38
2019,06,03,17,55,1017.40
2019,06,03,17,56,1017.41
2019,06,03,17,57,1017.41
2019,06,03,17,58,1017.36
2019,06,03,17,59,1017.40
2019,06,03,18,00,1017.38
2019,06,03,18,01,1017.35
2019,06,03,18,02,1017.34
2019,06,03,18,03,1017.36
2019,06,03,18,04,1017.37
2019,06,03,18,05,1017.35
2019,06,03,18,06,1017.36
2019,06,03,18,07,1017.37
2019,06,03,18,08,1017.27
2019,06,03,18,09,1017.29
2019,06,03,18,10,1017.31
2019,06,03,18,11,1017.28
2019,06,03,18,12,1017.30
2019,06,03,18,13,1017.28
2019,06,03,18,14,1017.32
2019,06,03,18,15,1017.29
2019,06,03,18,16,1017.27
2019,06,03,18,17,1017.25
2019,06,03,18,18,1017.24
2019,06,03,18,19,1017.26
2019,06,03,18,20,1017.25
2019,06,03,18,21,1017.21
2019,06,03,18,22,1017.16
2019,06,03,18,23,1017.18
2019,06,03,18,24,1017.20
2019,06,03,18,25,1017.23
2019,06,03,18,26,1017.19
2019,06,03,18,27,1017.19
2019,06,03,18,28,1017.20
2019,06,03,18,29,1017.20
2019,06,03,18,30,1017.20
2019,06,03,18,31,1017.16
2019,06,03,18,32,1017.16
2019,06,03,18,33,1017.15
2019,06,03,18,34,1017.19
2019,06,03,18,35,1017.20
2019,06,03,18,36,1017.16
2019,06,03,18,37,1017.14
2019,06,03,18,38,1017.16
2019,06,03,18,39,1017.15
2019,06,03,18,40,1017.09
2019,06,03,18,41,1017.09
2019,06,03,18,42,1017.13
2019,06,03,18,43,1017.14
2019,06,03,18,44,1017.11
2019,06,03,18,45,1017.08
2019,06,03,18,46,1017.09
2019,06,03,18,47,1017.10
2019,06,03,18,48,1017.08
2019,06,03,18,49,1017.09
2019,06,03,18,50,1017.10
2019,06,03,18,51,1017.16
2019,06,03,18,52,1017.15
2019,06,03,18,53,1017.16
2019,06,03,18,54,1017.15
2019,06,03,18,55,1017.14
2019,06,03,18,56,1017.18
2019,06,03,18,57,1017.16
2019,06,03,18,58,1017.18
2019,06,03,18,59,1017.16
2019,06,03,19,00,1017.14
2019,06,03,19,01,1017.11
2019,06,03,19,02,1017.05
2019,06,03,19,03,1017.08
2019,06,03,19,04,1017.10
2019,06,03,19,05,1017.15
2019,06,03,19,06,1017.17
2019,06,03,19,07,1017.17
2019,06,03,19,08,1017.17
2019,06,03,19,09,1017.12
2019,06,03,19,10,1017.13
2019,06,03,19,11,1017.14
2019,06,03,19,12,1017.16
2019,06,03,19,13,1017.12
2019,06,03,19,14,1017.10
2019,06,03,19,15,1017.10
2019,06,03,19,16,1017.17
2019,06,03,19,17,1017.18
2019,06,03,19,18,1017.15
2019,06,03,19,19,1017.19
2019,06,03,19,20,1017.12
2019,06,03,19,21,1017.10
2019,06,03,19,22,1017.13
2019,06,03,19,23,1017.16
2019,06,03,19,24,1017.17
2019,06,03,19,25,1017.17
2019,06,03,19,26,1017.19
2019,06,03,19,27,1017.18
2019,06,03,19,28,1017.19
2019,06,03,19,29,1017.18
2019,06,03,19,30,1017.22
2019,06,03,19,31,1017.21
2019,06,03,19,32,1017.16
2019,06,03,19,33,1017.16
2019,06,03,19,34,1017.15
2019,06,03,19,35,1017.14
2019,06,03,19,36,1017.18
2019,06,03,19,37,1017.18
2019,06,03,19,38,1017.15
2019,06,03,19,39,1017.14
2019,06,03,19,40,1017.16
2019,06,03,19,41,1017.22
2019,06,03,19,42,1017.21
2019,06,03,19,43,1017.20
2019,06,03,19,44,1017.20
2019,06,03,19,45,1017.16
2019,06,03,19,46,1017.14
2019,06,03,19,47,1017.24
2019,06,03,19,48,1017.25
2019,06,03,19,49,1017.29
2019,06,03,19,50,1017.28
2019,06,03,19,51,1017.27
2019,06,03,19,52,1017.27
2019,06,03,19,53,1017.27
2019,06,03,19,54,1017.27
2019,06,03,19,55,1017.25
2019,06,03,19,56,1017.29
2019,06,03,19,57,1017.28
2019,06,03,19,58,1017.27
2019,06,03,19,59,1017.25
2019,06,03,20,00,1017.32
2019,06,03,20,01,1017.32
2019,06,03,20,02,1017.28
2019,06,03,20,03,1017.27
2019,06,03,20,04,1017.27
2019,06,03,20,05,1017.32
2019,06,03,20,06,1017.32
2019,06,03,20,07,1017.36
2019,06,03,20,08,1017.37
2019,06,03,20,09,1017.37
2019,06,03,20,10,1017.37
2019,06,03,20,11,1017.45
2019,06,03,20,12,1017.45
2019,06,03,20,13,1017.44
2019,06,03,20,14,1017.36
2019,06,03,20,15,1017.41
2019,06,03,20,16,1017.44
2019,06,03,20,17,1017.42
2019,06,03,20,18,1017.43
2019,06,03,20,19,1017.49
2019,06,03,20,20,1017.46
2019,06,03,20,21,1017.46
2019,06,03,20,22,1017.45
2019,06,03,20,23,1017.46
2019,06,03,20,24,1017.50
2019,06,03,20,25,1017.48
2019,06,03,20,26,1017.53
2019,06,03,20,27,1017.54
2019,06,03,20,28,1017.54
2019,06,03,20,29,1017.54
2019,06,03,20,30,1017.54
2019,06,03,20,31,1017.52
2019,06,03,20,32,1017.51
2019,06,03,20,33,1017.51
2019,06,03,20,34,1017.51
2019,06,03,20,35,1017.53
2019,06,03,20,36,1017.59
2019,06,03,20,37,1017.56
2019,06,03,20,38,1017.57
2019,06,03,20,39,1017.58
2019,06,03,20,40,1017.55
2019,06,03,20,41,1017.54
2019,06,03,20,42,1017.54
2019,06,03,20,43,1017.54
2019,06,03,20,44,1017.52
2019,06,03,20,45,1017.53
2019,06,03,20,46,1017.54
2019,06,03,20,47,1017.54
2019,06,03,20,48,1017.52
2019,06,03,20,49,1017.51
2019,06,03,20,50,1017.53
2019,06,03,20,51,1017.54
2019,06,03,20,52,1017.54
2019,06,03,20,53,1017.54
2019,06,03,20,54,1017.57
2019,06,03,20,55,1017.60
2019,06,03,20,56,1017.61
2019,06,03,20,57,1017.61
2019,06,03,20,58,1017.69
2019,06,03,20,59,1017.71
2019,06,03,21,00,1017.71
2019,06,03,21,01,1017.69
2019,06,03,21,02,1017.70
2019,06,03,21,03,1017.74
2019,06,03,21,04,1017.77
2019,06,03,21,05,1017.73
2019,06,03,21,06,1017.78
2019,06,03,21,07,1017.79
2019,06,03,21,08,1017.83
2019,06,03,21,09,1017.90
2019,06,03,21,10,1017.91
2019,06,03,21,11,1017.91
2019,06,03,21,12,1017.89
2019,06,03,21,13,1017.90
2019,06,03,21,14,1017.96
2019,06,03,21,15,1017.98
2019,06,03,21,16,1018.03
2019,06,03,21,17,1018.03
2019,06,03,21,18,1018.02
2019,06,03,21,19,1018.09
2019,06,03,21,20,1018.09
2019,06,03,21,21,1018.11
2019,06,03,21,22,1018.12
2019,06,03,21,23,1018.14
2019,06,03,21,24,1018.15
2019,06,03,21,25,1018.18
2019,06,03,21,26,1018.19
2019,06,03,21,27,1018.19
2019,06,03,21,28,1018.19
2019,06,03,21,29,1018.23
2019,06,03,21,30,1018.23
2019,06,03,21,31,1018.22
2019,06,03,21,32,1018.24
2019,06,03,21,33,1018.25
2019,06,03,21,34,1018.30
2019,06,03,21,35,1018.32
2019,06,03,21,36,1018.32
2019,06,03,21,37,1018.32
2019,06,03,21,38,1018.30
2019,06,03,21,39,1018.31
2019,06,03,21,40,1018.37
2019,06,03,21,41,1018.37
2019,06,03,21,42,1018.41
2019,06,03,21,43,1018.40
2019,06,03,21,44,1018.41
2019,06,03,21,45,1018.38
2019,06,03,21,46,1018.38
2019,06,03,21,47,1018.44
2019,06,03,21,48,1018.46
2019,06,03,21,49,1018.53
2019,06,03,21,50,1018.53
2019,06,03,21,51,1018.55
2019,06,03,21,52,1018.61
2019,06,03,21,53,1018.60
2019,06,03,21,54,1018.62
2019,06,03,21,55,1018.65
2019,06,03,21,56,1018.64
2019,06,03,21,57,1018.60
2019,06,03,21,58,1018.66
2019,06,03,21,59,1018.65
2019,06,03,22,00,1018.63
2019,06,03,22,01,1018.65
2019,06,03,22,02,1018.64
2019,06,03,22,03,1018.60
2019,06,03,22,04,1018.59
2019,06,03,22,05,1018.59
2019,06,03,22,06,1018.59
2019,06,03,22,07,1018.59
2019,06,03,22,08,1018.59
2019,06,03,22,09,1018.62
2019,06,03,22,10,1018.60
2019,06,03,22,11,1018.59
2019,06,03,22,12,1018.59
2019,06,03,22,13,1018.54
2019,06,03,22,14,1018.55
2019,06,03,22,15,1018.61
2019,06,03,22,16,1018.60
2019,06,03,22,17,1018.54
2019,06,03,22,18,1018.50
2019,06,03,22,19,1018.54
2019,06,03,22,20,1018.56
2019,06,03,22,21,1018.58
2019,06,03,22,22,1018.57
2019,06,03,22,23,1018.51
2019,06,03,22,24,1018.49
2019,06,03,22,25,1018.47
2019,06,03,22,26,1018.46
2019,06,03,22,27,1018.48
2019,06,03,22,28,1018.49
2019,06,03,22,29,1018.49
2019,06,03,22,30,1018.49
2019,06,03,22,31,1018.51
2019,06,03,22,32,1018.57
2019,06,03,22,33,1018.57
2019,06,03,22,34,1018.51
2019,06,03,22,35,1018.47
2019,06,03,22,36,1018.46
2019,06,03,22,37,1018.48
2019,06,03,22,38,1018.49
2019,06,03,22,39,1018.49
2019,06,03,22,40,1018.49
2019,06,03,22,41,1018.47
2019,06,03,22,42,1018.48
2019,06,03,22,43,1018.51
2019,06,03,22,44,1018.52
2019,06,03,22,45,1018.52
2019,06,03,22,46,1018.50
2019,06,03,22,47,1018.49
2019,06,03,22,48,1018.49
2019,06,03,22,49,1018.54
2019,06,03,22,50,1018.53
2019,06,03,22,51,1018.50
2019,06,03,22,52,1018.51
2019,06,03,22,53,1018.55
2019,06,03,22,54,1018.53
2019,06,03,22,55,1018.52
2019,06,03,22,56,1018.52
2019,06,03,22,57,1018.52
2019,06,03,22,58,1018.52
2019,06,03,22,59,1018.55
2019,06,03,23,00,1018.56
2019,06,03,23,01,1018.56
2019,06,03,23,02,1018.56
2019,06,03,23,03,1018.53
2019,06,03,23,04,1018.57
2019,06,03,23,05,1018.54
2019,06,03,23,06,1018.52
2019,06,03,23,07,1018.52
2019,06,03,23,08,1018.55
2019,06,03,23,09,1018.56
2019,06,03,23,10,1018.51
2019,06,03,23,11,1018.47
2019,06,03,23,12,1018.48
2019,06,03,23,13,1018.47
2019,06,03,23,14,1018.46
2019,06,03,23,15,1018.46
2019,06,03,23,16,1018.51
2019,06,03,23,17,1018.50
2019,06,03,23,18,1018.51
2019,06,03,23,19,1018.52
2019,06,03,23,20,1018.55
2019,06,03,23,21,1018.56
2019,06,03,23,22,1018.56
2019,06,03,23,23,1018.61
2019,06,03,23,24,1018.58
2019,06,03,23,25,1018.48
2019,06,03,23,26,1018.46
2019,06,03,23,27,1018.48
2019,06,03,23,28,1018.51
2019,06,03,23,29,1018.52
2019,06,03,23,30,1018.50
2019,06,03,23,31,1018.54
2019,06,03,23,32,1018.56
2019,06,03,23,33,1018.58
2019,06,03,23,34,1018.49
2019,06,03,23,35,1018.51
2019,06,03,23,36,1018.52
2019,06,03,23,37,1018.52
2019,06,03,23,38,1018.50
2019,06,03,23,39,1018.51
2019,06,03,23,40,1018.52
2019,06,03,23,41,1018.52
2019,06,03,23,42,1018.57
2019,06,03,23,43,1018.52
2019,06,03,23,44,1018.51
2019,06,03,23,45,1018.50
2019,06,03,23,46,1018.47
2019,06,03,23,47,1018.51
2019,06,03,23,48,1018.45
2019,06,03,23,49,1018.45
2019,06,03,23,50,1018.43
2019,06,03,23,51,1018.42
2019,06,03,23,52,1018.42
2019,06,03,23,53,1018.42
2019,06,03,23,54,1018.34
2019,06,03,23,55,1018.37
2019,06,03,23,56,1018.39
2019,06,03,23,57,1018.41
2019,06,03,23,58,1018.40
2019,06,03,23,59,1018.44
